Regional Weather Roundup
Issued by NWS

Home | Current Version | Previous Version | Text Only | Print | Product List | Glossary On
Versions: 1 2 3 4 5 6 7 8 9 10 11 12 13 14 15 16 17 18 19 20 21 22 23 24 25 26 27 28 29 30 31 32 33 34 35 36 37 38 39 40 41 42 43 44 45 46 47 48 49 50
000
ASUS43 KDTX 210401
RWRMI
MICHIGAN HOURLY REGIONAL WEATHER ROUNDUP
NATIONAL WEATHER SERVICE DETROIT/PONTIAC MI
1200 AM EDT TUE APR 21 2015

NOTE: "FAIR" INDICATES FEW OR NO CLOUDS BELOW 12,000 FEET WITH NO
SIGNIFICANT WEATHER AND/OR OBSTRUCTION TO VISIBILITY.

MIZ047>049-052>055-059>063-066>070-074>076-081>083-210500-
SOUTHEAST LOWER MICHIGAN

CITY           SKY/WX    TMP DP  RH WIND       PRES   REMARKS
ADRIAN         CLOUDY    45  37  73 W9        29.61R
ALMA           CLOUDY    41  38  91 SW10G17   29.53S
ANN ARBOR      CLOUDY    45  35  68 W20G25    29.58S
BAD AXE        LGT RAIN  42  38  83 SW12G18   29.50R
CARO           RAIN      43  39  88 SW9       29.51S
DETROIT CITY   CLOUDY    46  35  65 W14       29.57S
DETROIT        CLOUDY    47  36  65 SW18G24   29.59S
FLINT          CLOUDY    43  37  79 W14       29.56R
GROSSE ILE     CLOUDY    46  39  76 W9        29.58S
HILLSDALE      CLOUDY    44  35  69 W14G21    29.59S
HOWELL         CLOUDY    42  37  81 W14       29.56S

CITY           SKY/WX    TMP DP  RH WIND       PRES   REMARKS
JACKSON        CLOUDY    43  35  73 W7        29.58S
LAMBERTVILLE   CLOUDY    48  34  57 W13       29.61S
LANSING        CLOUDY    42  33  70 W14       29.56S
LAPEER         CLOUDY    43  37  80 W12G21    29.54R
MASON          CLOUDY    42  33  72 SW7       29.57S
MONROE         DRIZZLE   46  39  76 W10       29.59R
PONTIAC        CLOUDY    42  35  76 W14       29.55R
PORT HOPE        N/A     44  36  73 VRB7G22   29.47R
PORT HURON     CLOUDY    45  39  81 W3        29.55S
TRI CITIES     CLOUDY    43  38  82 W13       29.52R
TROY           CLOUDY    46  38  74 W17G26    29.59R
SAGINAW HB     CLOUDY    43  37  81 SW12G21   29.51S
$$
MIZ043>046-050>051-056>058-064>065-071>073-077>080-210500-
SOUTHWEST LOWER MICHIGAN

CITY           SKY/WX    TMP DP  RH WIND       PRES   REMARKS
BATTLE CREEK   CLOUDY    43  34  70 W15       29.58F
BENTON HARBOR  CLOUDY    42  33  70 W15G24    29.61S
BIG RAPIDS     CLOUDY    39  37  90 SW8       29.49R WCI  34
COLDWATER      CLOUDY    43  32  64 W13G18    29.60S
FREMONT        CLOUDY    39  34  81 W10       29.52S WCI  32
HOLLAND        CLOUDY    43  33  68 W17       29.58R
GRAND RAPIDS   CLOUDY    41  35  79 SW12      29.55S
IONIA          CLOUDY    41  37  83 W10       29.54S
KALAMAZOO      CLOUDY    44  33  65 W14       29.60S
LUDINGTON      CLOUDY    40  36  83 W8        29.49F
MARSHALL       CLOUDY    42  34  75 W13       29.58S
MOUNT PLEASANT LGT RAIN  39  37  91 W12G20    29.51R WCI  32
MUSKEGON       CLOUDY    41  34  76 SW13      29.54F
SOUTH HAVEN    CLOUDY    43  33  67 W13G20    29.60S
$$
MIZ016>042-210500-
NORTHERN LOWER MICHIGAN

CITY           SKY/WX    TMP DP  RH WIND       PRES   REMARKS
ALPENA         CLOUDY    40  34  79 W8        29.42R WCI  34
BEAVER ISLAND  CLOUDY    35  34  96 SW7       29.38S WCI  29
BELLAIRE       MIX PCPN  38  37  93 SW5       29.42F WCI  35
CADILLAC       CLOUDY    37  35  90 SW13      29.44S WCI  29
CHARLEVOIX     DRIZZLE   38  37  99 SW7       29.43S WCI  32
FRANKFORT      CLOUDY    40  33  74 W12G18    29.45S WCI  34
GAYLORD        LGT SNOW  33  33 100 SW8       29.40S FOG     WCI  26
GRAYLING       LGT RAIN  37  35  92 SW7       29.43S WCI  31
HARBOR SPRINGS LGT RAIN  35  34  96 W5        29.40S WCI  31
HOUGHTON LAKE  CLOUDY    39  35  86 W15G24    29.45S WCI  31
MANISTEE       CLOUDY    39  32  75 W10G16    29.48S WCI  32
OSCODA         CLOUDY    41  34  77 W16       29.44S
PELLSTON       CLOUDY    36  34  92 SW8       29.40R WCI  30
ROGERS CITY    CLOUDY    37  35  90 W12G18    29.40S WCI  30
TRAVERSE CITY  CLOUDY    40  36  86 SW9       29.42S WCI  34
$$
MIZ007>008-015-210500-
EASTERN UPPER MICHIGAN

CITY           SKY/WX    TMP DP  RH WIND       PRES   REMARKS
KINROSS        CLOUDY    36  36 100 SW6       29.34R WCI  31
MACKINAC ISLAN CLOUDY    36  36 100 SW15G23   29.36S WCI  26
NEWBERRY       CLOUDY    35  33  94 SW9       29.32S WCI  27
S. S. MARIE    LGT RAIN  36  33  89 SW6       29.32R WCI  31
$$
MIZ004>006-011>014-085-210500-
CENTRAL UPPER MICHIGAN

CITY           SKY/WX    TMP DP  RH WIND       PRES   REMARKS
MANISTIQUE     CLOUDY    36  35  95 SW7       29.35S WCI  30
ESCANABA       CLOUDY    36  30  80 S7        29.36S WCI  30
MENOMINEE      CLOUDY    39  28  65 W8        29.39S WCI  34
SAWYER-GWINN   CLOUDY    34  30  86 W12       29.30F WCI  25
$$
MIZ001>003-009>011-084-210500-
WESTERN UPPER MICHIGAN

CITY           SKY/WX    TMP DP  RH WIND       PRES   REMARKS
IRON MOUNTAIN  CLOUDY    36  30  79 W6        29.32F WCI  31
HOUGHTON       CLOUDY    33  29  85 W20G29    29.25F WCI  21
COPPER HARBOR    N/A     34  31  88 NW14G26   29.23F WCI  25
IRONWOOD       CLOUDY    32  28  86 W14       29.31F WCI  22
$$

ABBREVIATIONS USED IN REMARKS
   TC - TEMPERATURE IN CELSIUS
  WCI - WIND CHILL INDEX
   HX - HEAT INDEX
  VSB - VISIBILITY




USA.gov is the U.S. government's official web portal to all federal, state and local government web resources and services.